EW9290 Weather Reports


Display with metric or nautical units.
time (UTC)temp
F
wind
direction
speed
MPH
gust
MPH
rain 1hr
in
rain 24hr
in
rain mn
in
humidity
%
barometer
mb
20260831212247 85 55 0.0 0.0 0.00 0.01 0.01 70 1015.1
20260831211745 84 37 0.0 0.0 0.00 0.01 0.01 70 1015.1
20260831211241 85 35 0.0 1.0 0.00 0.01 0.01 68 1015.2
20260831210740 85 202 0.0 0.0 0.00 0.01 0.01 66 1015.4
20260831210237 85 202 0.0 0.0 0.00 0.01 0.01 64 1015.3
20260831205736 86 202 1.0 1.0 0.00 0.01 0.01 67 1015.3
20260831205232 86 193 1.0 1.0 0.00 0.01 0.01 66 1015.4
20260831204726 87 287 0.0 1.0 0.00 0.01 0.01 64 1015.5
20260831204226 87 219 1.0 2.0 0.00 0.01 0.01 63 1015.4
20260831203719 88 222 0.0 0.0 0.00 0.01 0.01 63 1015.3
20260831203219 87 245 0.0 0.0 0.00 0.01 0.01 66 1015.5
20260831202717 86 219 0.0 0.0 0.00 0.01 0.01 68 1015.3
20260831202212 85 314 0.0 0.0 0.00 0.01 0.01 70 1015.0
20260831201707 85 70 0.0 0.0 0.00 0.01 0.01 72 1015.3
20260831201206 84 64 0.0 0.0 0.00 0.01 0.01 73 1015.4
20260831200703 83 46 0.0 0.0 0.00 0.01 0.01 72 1015.2
20260831200202 83 42 0.0 0.0 0.00 0.01 0.01 71 1014.8
20260831195658 82 42 0.0 0.0 0.00 0.01 0.01 72 1014.9
20260831195153 82 231 0.0 0.0 0.00 0.01 0.01 71 1015.0
20260831194648 82 232 0.0 0.0 0.00 0.01 0.01 71 1014.9
20260831194143 82 220 0.0 0.0 0.00 0.01 0.01 71 1014.9
20260831193637 82 220 0.0 0.0 0.00 0.01 0.01 70 1014.9
20260831193133 83 213 0.0 0.0 0.00 0.01 0.01 71 1015.2
20260831192628 83 213 0.0 0.0 0.00 0.01 0.01 70 1015.4
20260831192123 83 213 0.0 0.0 0.00 0.01 0.01 70 1015.6
20260831191619 83 213 0.0 0.0 0.00 0.01 0.01 69 1015.4
20260831191115 84 209 0.0 0.0 0.00 0.01 0.01 69 1015.6
20260831190610 84 204 0.0 0.0 0.00 0.01 0.01 68 1015.8
20260831190109 84 204 0.0 0.0 0.00 0.01 0.01 68 1015.8
20260831185605 84 221 0.0 0.0 0.00 0.01 0.01 68 1015.8
20260831185101 84 216 1.0 1.0 0.00 0.01 0.01 68 1015.8
20260831184600 84 268 0.0 1.0 0.00 0.01 0.01 67 1016.0
20260831184055 84 233 2.0 3.0 0.00 0.01 0.01 67 1016.0
20260831183554 85 177 1.0 1.0 0.00 0.01 0.01 67 1016.0
20260831183048 86 196 5.0 6.0 0.00 0.01 0.01 66 1016.0
20260831182543 86 31 2.0 2.0 0.00 0.01 0.01 66 1016.0
20260831182039 85 140 1.0 1.0 0.00 0.01 0.01 70 1016.2
20260831181538 86 227 2.0 2.0 0.00 0.01 0.01 69 1016.1
20260831181038 85 238 0.0 0.0 0.00 0.01 0.01 68 1016.1
20260831180534 85 253 1.0 1.0 0.00 0.01 0.01 70 1016.3
20260831180028 84 221 1.0 1.0 0.00 0.01 0.01 70 1016.3
20260831175524 84 234 0.0 0.0 0.00 0.01 0.01 72 1016.3
20260831175020 84 225 0.0 0.0 0.00 0.01 0.01 70 1016.5
20260831174515 84 240 1.0 2.0 0.00 0.01 0.01 72 1016.4
20260831174014 84 226 0.0 0.0 0.00 0.01 0.01 71 1016.3
20260831173513 84 207 0.0 0.0 0.00 0.01 0.01 73 1016.3
20260831173010 83 213 4.0 5.0 0.00 0.01 0.01 70 1016.3
20260831172504 83 210 2.0 2.0 0.00 0.01 0.01 72 1016.6
20260831171959 83 240 1.0 1.0 0.00 0.01 0.01 71 1016.4
20260831171455 83 226 1.0 1.0 0.00 0.01 0.01 71 1016.5
20260831170952 83 257 3.0 6.0 0.00 0.01 0.01 70 1016.5
20260831170448 84 254 1.0 1.0 0.00 0.01 0.01 72 1016.4
20260831165944 83 233 1.0 1.0 0.00 0.01 0.01 71 1016.6
20260831165440 83 238 3.0 5.0 0.00 0.01 0.01 73 1016.7
20260831164937 82 205 1.0 1.0 0.00 0.01 0.01 73 1016.6
20260831164432 82 223 1.0 1.0 0.00 0.01 0.01 73 1016.6
20260831163927 82 232 1.0 1.0 0.00 0.01 0.01 74 1016.7
20260831163423 82 243 2.0 2.0 0.00 0.01 0.01 73 1016.6
20260831162921 82 190 0.0 1.0 0.00 0.01 0.01 72 1016.5
20260831162417 83 249 1.0 2.0 0.00 0.01 0.01 73 1016.6
20260831161915 83 248 2.0 2.0 0.00 0.01 0.01 72 1016.4
20260831161412 83 276 3.0 5.0 0.00 0.01 0.01 70 1016.3
20260831160907 84 239 3.0 3.0 0.00 0.01 0.01 70 1016.5
20260831160402 83 272 1.0 2.0 0.00 0.01 0.01 69 1016.8
20260831155857 83 226 4.0 5.0 0.00 0.01 0.01 68 1016.5
20260831155356 82 236 3.0 3.0 0.00 0.01 0.01 72 1016.5
20260831154852 81 226 0.0 1.0 0.00 0.01 0.01 74 1016.6
20260831154349 81 223 1.0 1.0 0.00 0.01 0.01 73 1016.6
20260831153846 82 218 2.0 2.0 0.00 0.01 0.01 73 1016.6
20260831153343 82 238 3.0 3.0 0.00 0.01 0.01 71 1016.4
20260831152839 82 292 1.0 2.0 0.00 0.01 0.01 74 1016.4
20260831152334 82 240 3.0 3.0 0.00 0.01 0.01 74 1016.7
20260831151829 82 174 2.0 3.0 0.00 0.01 0.01 73 1016.5
20260831151328 82 257 4.0 5.0 0.00 0.01 0.01 73 1016.4
20260831150824 80 210 1.0 2.0 0.00 0.01 0.01 76 1016.6
20260831150319 79 224 0.0 0.0 0.00 0.01 0.01 80 1016.6
20260831145818 79 213 0.0 0.0 0.00 0.01 0.01 80 1016.7
20260831145315 80 211 1.0 1.0 0.00 0.01 0.01 80 1016.6
20260831144810 78 202 1.0 1.0 0.00 0.01 0.01 82 1016.7
20260831144306 77 197 2.0 2.0 0.00 0.01 0.01 84 1016.6
20260831143806 76 197 1.0 1.0 0.00 0.01 0.01 85 1016.9
20260831143301 76 181 0.0 1.0 0.00 0.01 0.01 87 1016.6
20260831142756 76 171 1.0 1.0 0.00 0.01 0.01 87 1016.6
20260831142252 75 180 1.0 2.0 0.00 0.01 0.01 87 1016.8
20260831141751 75 192 1.0 1.0 0.00 0.01 0.01 88 1016.6
20260831141251 75 182 1.0 2.0 0.00 0.01 0.01 88 1016.7
20260831140746 74 175 0.0 0.0 0.00 0.01 0.01 89 1016.7
20260831140241 74 186 1.0 1.0 0.00 0.01 0.01 90 1016.5
20260831135738 73 194 2.0 2.0 0.00 0.01 0.01 90 1016.5
20260831135234 73 182 2.0 3.0 0.00 0.01 0.01 91 1016.4
20260831134729 73 201 1.0 1.0 0.00 0.01 0.01 91 1016.7
20260831134226 73 182 1.0 1.0 0.00 0.01 0.01 92 1016.5
20260831133725 73 175 0.0 0.0 0.00 0.01 0.01 92 1016.7
20260831133219 73 175 0.0 0.0 0.00 0.01 0.01 92 1016.8
20260831132715 73 175 0.0 0.0 0.00 0.01 0.01 93 1016.8
20260831132214 73 167 3.0 3.0 0.00 0.01 0.01 92 1016.7
20260831131709 73 189 2.0 2.0 0.00 0.01 0.01 92 1016.6
20260831131206 73 177 0.0 0.0 0.00 0.01 0.01 91 1016.6
20260831130700 74 188 1.0 1.0 0.00 0.01 0.01 91 1016.5
20260831130156 74 188 0.0 0.0 0.00 0.01 0.01 91 1016.5
20260831125654 74 188 0.0 0.0 0.00 0.01 0.01 91 1016.6
20260831125150 73 188 0.0 0.0 0.00 0.01 0.01 91 1016.6
20260831124645 73 181 1.0 1.0 0.00 0.01 0.01 91 1016.5
20260831124141 72 178 1.0 1.0 0.00 0.01 0.01 93 1016.5
20260831123636 71 179 0.0 0.0 0.00 0.01 0.01 95 1016.5
20260831123134 70 178 0.0 0.0 0.00 0.01 0.01 96 1016.7
20260831122634 70 178 0.0 0.0 0.00 0.01 0.01 96 1016.5
20260831122131 69 146 0.0 0.0 0.00 0.01 0.01 97 1016.6
20260831121630 69 143 0.0 0.0 0.00 0.01 0.01 98 1016.4
20260831121126 69 140 0.0 0.0 0.00 0.01 0.01 98 1016.7
20260831120621 69 140 0.0 0.0 0.00 0.01 0.01 97 1016.6
20260831120116 69 114 0.0 0.0 0.00 0.01 0.01 97 1016.3
20260831115612 69 113 0.0 0.0 0.00 0.01 0.01 96 1016.7
20260831115107 69 114 0.0 0.0 0.00 0.01 0.01 96 1016.6
20260831114606 69 113 0.0 0.0 0.00 0.01 0.01 97 1016.6
20260831114101 69 113 0.0 0.0 0.00 0.01 0.01 96 1016.6
20260831113600 69 153 0.0 0.0 0.00 0.01 0.01 96 1016.5
20260831113056 69 158 1.0 1.0 0.00 0.01 0.01 96 1016.4
20260831112555 69 159 1.0 1.0 0.07 0.01 0.01 95 1016.5
20260831112050 69 152 0.0 0.0 0.07 0.01 0.01 95 1016.5
20260831111546 69 175 3.0 3.0 0.00 0.00 0.00 96 1016.5
20260831111042 69 150 0.0 0.0 0.00 0.00 0.00 96 1016.5
20260831110537 69 150 0.0 0.0 0.00 0.00 0.00 94 1016.3
20260831110032 70 150 0.0 0.0 0.00 0.00 0.00 94 1016.4
20260831105531 70 150 0.0 0.0 0.00 0.00 0.00 94 1016.4
20260831105026 70 150 1.0 1.0 0.00 0.00 0.00 94 1016.0
20260831104523 70 151 1.0 2.0 0.00 0.00 0.00 94 1015.9
20260831104018 69 151 0.0 1.0 0.00 0.00 0.00 94 1016.0
20260831103513 69 163 2.0 2.0 0.00 0.00 0.00 94 1016.0
20260831103009 69 164 0.0 0.0 0.00 0.00 0.00 94 1015.9
20260831102503 69 177 0.0 1.0 0.00 0.00 0.00 94 1015.8
20260831101958 69 174 1.0 1.0 0.00 0.00 0.00 94 1015.8
20260831101453 69 164 1.0 2.0 0.00 0.00 0.00 94 1016.0
20260831100949 70 160 1.0 1.0 0.00 0.00 0.00 93 1015.8
20260831100445 70 156 0.0 0.0 0.00 0.00 0.00 93 1015.9
20260831095940 70 156 1.0 1.0 0.00 0.00 0.00 93 1015.8
20260831095439 70 160 1.0 1.0 0.00 0.00 0.00 93 1016.1
20260831094934 70 166 1.0 1.0 0.00 0.00 0.00 93 1016.1
20260831094430 70 167 1.0 1.0 0.00 0.00 0.00 93 1015.8
20260831093926 70 164 0.0 0.0 0.00 0.00 0.00 93 1015.6
20260831093420 70 168 0.0 0.0 0.00 0.00 0.00 93 1016.0
20260831092917 70 167 0.0 0.0 0.00 0.00 0.00 92 1015.9
20260831092413 70 166 0.0 0.0 0.00 0.00 0.00 92 1015.8
20260831091908 70 159 2.0 2.0 0.00 0.00 0.00 92 1015.7
20260831091403 70 160 1.0 1.0 0.00 0.00 0.00 92 1016.0
20260831090858 70 173 1.0 1.0 0.00 0.00 0.00 92 1016.0
20260831090354 70 162 1.0 2.0 0.00 0.00 0.00 92 1015.8
20260831085850 70 171 2.0 2.0 0.00 0.00 0.00 92 1016.0
20260831085344 70 160 0.0 1.0 0.00 0.00 0.00 92 1016.0
20260831084839 70 163 0.0 0.0 0.00 0.00 0.00 92 1015.8
20260831084335 70 155 1.0 1.0 0.00 0.00 0.00 92 1015.7
20260831083831 70 154 0.0 0.0 0.00 0.00 0.00 92 1015.9
20260831083326 70 170 0.0 0.0 0.00 0.00 0.00 92 1016.0
20260831082825 70 167 1.0 1.0 0.00 0.00 0.00 92 1015.9
20260831082320 70 167 0.0 0.0 0.00 0.00 0.00 92 1015.6
20260831081816 69 167 0.0 0.0 0.00 0.00 0.00 93 1016.0
20260831081311 69 167 0.0 1.0 0.00 0.00 0.00 93 1015.8
20260831080807 69 164 1.0 1.0 0.00 0.00 0.00 94 1016.0
20260831080301 69 163 0.0 0.0 0.00 0.00 0.00 94 1016.0
20260831075757 69 163 0.0 0.0 0.00 0.00 0.00 94 1016.0
20260831075253 69 149 0.0 0.0 0.00 0.00 0.00 95 1016.1
20260831074752 69 149 0.0 0.0 0.00 0.00 0.00 95 1016.1
20260831074246 69 146 0.0 0.0 0.00 0.00 0.00 95 1015.8
20260831073742 69 155 0.0 0.0 0.00 0.00 0.00 95 1016.0
20260831073240 69 155 0.0 0.0 0.00 0.00 0.00 95 1015.8
20260831072736 69 155 0.0 0.0 0.00 0.00 0.00 95 1015.7
20260831072232 69 155 0.0 0.0 0.00 0.00 0.00 95 1016.0
20260831071732 69 155 0.0 0.0 0.00 0.00 0.00 95 1016.0
20260831071227 69 153 1.0 1.0 0.00 0.00 0.00 96 1015.9
20260831070721 69 149 1.0 1.0 0.00 0.00 0.00 96 1015.9
20260831070215 69 151 1.0 2.0 0.00 0.00 0.00 97 1016.1
20260831065714 69 159 0.0 0.0 0.00 0.00 0.00 97 1016.2
20260831065213 69 156 1.0 2.0 0.00 0.00 0.00 97 1016.1
20260831064708 69 160 1.0 1.0 0.00 0.00 0.00 97 1016.2
20260831064203 69 149 0.0 0.0 0.00 0.00 0.00 97 1016.3
20260831063659 69 143 0.0 0.0 0.00 0.00 0.00 97 1015.9
20260831063154 69 133 0.0 0.0 0.00 0.00 0.00 97 1016.3
20260831062654 69 141 0.0 1.0 0.00 0.00 0.00 97 1016.1
20260831062148 69 128 0.0 0.0 0.00 0.00 0.00 97 1016.3
20260831061646 69 144 0.0 0.0 0.00 0.00 0.00 97 1016.5
20260831061142 69 153 1.0 1.0 0.00 0.00 0.00 97 1016.5
20260831060638 69 153 2.0 3.0 0.00 0.00 0.00 97 1016.6
20260831060138 69 143 0.0 1.0 0.00 0.00 0.00 98 1016.5
20260831055637 69 138 0.0 0.0 0.00 0.00 0.00 98 1016.4
20260831055132 69 134 0.0 0.0 0.00 0.00 0.00 98 1016.7
20260831054632 69 143 0.0 0.0 0.00 0.00 0.00 98 1016.5
20260831054132 69 136 0.0 0.0 0.00 0.00 0.00 98 1016.5
20260831053627 69 116 0.0 0.0 0.00 0.00 0.00 98 1016.4
20260831053126 69 122 1.0 1.0 0.00 0.00 0.00 98 1016.4
20260831052625 69 124 0.0 1.0 0.00 0.00 0.00 98 1016.5
20260831052124 69 131 0.0 1.0 0.00 0.00 0.00 98 1016.4
20260831051622 69 132 0.0 0.0 0.00 0.00 0.00 98 1016.5
20260831051121 69 138 1.0 1.0 0.00 0.00 0.00 98 1016.3
20260831050622 69 160 1.0 1.0 0.00 0.00 0.00 98 1016.4
20260831050121 69 142 0.0 0.0 0.00 0.00 0.00 98 1016.7
20260831045620 70 147 0.0 0.0 0.00 0.00 0.00 98 1016.5
20260831045116 70 148 0.0 0.0 0.00 0.00 0.00 98 1016.7
20260831044611 70 148 0.0 0.0 0.00 0.00 0.00 97 1016.6
20260831044106 70 150 0.0 0.0 0.00 0.00 0.00 97 1016.7
20260831043601 70 143 0.0 0.0 0.00 0.00 0.00 97 1016.7
20260831043056 70 158 1.0 2.0 0.00 0.00 0.00 97 1016.5
20260831042555 70 154 1.0 1.0 0.00 0.00 0.00 97 1016.9
20260831042051 70 174 0.0 1.0 0.00 0.00 0.00 97 1016.5
20260831041546 70 161 0.0 0.0 0.00 0.00 0.00 97 1016.6
20260831041045 70 149 0.0 0.0 0.00 0.00 0.00 97 1016.9
20260831040539 70 143 0.0 0.0 0.00 0.00 0.00 97 1016.8
20260831040034 70 143 0.0 0.0 0.00 0.00 0.00 97 1016.8
20260831035531 70 143 0.0 0.0 0.00 0.02 0.02 97 1016.8
20260831035026 70 157 0.0 0.0 0.00 0.02 0.02 98 1016.8
20260831034521 70 82 0.0 0.0 0.00 0.02 0.02 98 1016.9
20260831034016 69 161 1.0 1.0 0.00 0.02 0.02 99 1016.5
20260831033512 69 150 0.0 1.0 0.00 0.02 0.02 99 1016.7
20260831033007 69 177 0.0 0.0 0.00 0.02 0.02 99 1016.6
20260831032506 69 184 2.0 2.0 0.00 0.02 0.02 99 1016.8
20260831032002 69 164 1.0 1.0 0.00 0.02 0.02 99 1017.1
20260831031501 69 153 0.0 0.0 0.00 0.02 0.02 99 1017.0
20260831031001 69 138 0.0 0.0 0.00 0.02 0.02 99 1017.1
20260831030500 69 136 0.0 0.0 0.00 0.02 0.02 99 1017.2
20260831025958 69 136 0.0 0.0 0.00 0.02 0.02 99 1017.2
20260831025457 69 136 0.0 1.0 0.00 0.02 0.02 99 1017.5
20260831024953 69 135 0.0 0.0 0.00 0.02 0.02 99 1017.2
20260831024449 69 134 0.0 0.0 0.00 0.02 0.02 99 1017.6
20260831023948 69 133 0.0 0.0 0.00 0.02 0.02 99 1017.6
20260831023446 69 133 0.0 0.0 0.00 0.02 0.02 99 1017.6
20260831022942 69 133 0.0 0.0 0.00 0.02 0.02 99 1017.6
20260831022440 69 135 0.0 0.0 0.00 0.02 0.02 99 1017.4
20260831021935 69 135 0.0 0.0 0.00 0.02 0.02 99 1017.5
20260831021435 69 136 0.0 0.0 0.00 0.02 0.02 99 1017.6
20260831020931 69 136 0.0 0.0 0.00 0.02 0.02 99 1017.3
20260831020430 69 135 0.0 0.0 0.00 0.02 0.02 99 1017.3
20260831015925 69 123 0.0 0.0 0.00 0.02 0.02 99 1017.7
20260831015421 69 122 0.0 0.0 0.00 0.02 0.02 99 1017.7
20260831014916 69 122 0.0 0.0 0.00 0.02 0.02 99 1017.7
20260831014411 69 122 0.0 0.0 0.00 0.02 0.02 99 1017.5
20260831013907 69 116 0.0 0.0 0.00 0.02 0.02 99 1017.8
20260831013402 69 109 0.0 0.0 0.00 0.02 0.02 99 1017.6
20260831012856 70 98 0.0 0.0 0.00 0.02 0.02 99 1017.7
20260831012352 70 98 0.0 0.0 0.00 0.02 0.02 99 1017.8
20260831011851 70 52 0.0 0.0 0.00 0.02 0.02 99 1017.7
20260831011346 70 44 0.0 0.0 0.00 0.02 0.02 99 1017.7
20260831010842 69 44 0.0 0.0 0.00 0.02 0.02 99 1017.6
20260831010342 70 44 0.0 0.0 0.00 0.02 0.02 99 1017.6
20260831005838 70 44 0.0 0.0 0.00 0.02 0.02 99 1017.5
20260831005333 70 44 0.0 0.0 0.00 0.02 0.02 99 1017.5
20260831004828 70 44 0.0 0.0 0.00 0.02 0.02 99 1017.3
20260831004324 70 43 0.0 0.0 0.00 0.02 0.02 99 1017.4
20260831003820 70 27 0.0 0.0 0.00 0.02 0.02 99 1017.4
20260831003316 70 27 0.0 0.0 0.00 0.02 0.02 99 1017.5
20260831002815 70 27 0.0 0.0 0.00 0.02 0.02 98 1017.4
20260831002314 70 26 0.0 0.0 0.00 0.02 0.02 98 1017.4
20260831001810 70 26 0.0 0.0 0.00 0.02 0.02 98 1017.2
20260831001305 70 26 0.0 0.0 0.00 0.02 0.02 97 1017.4
20260831000803 70 26 0.0 0.0 0.00 0.02 0.02 97 1017.4
20260831000303 70 26 0.0 0.0 0.00 0.02 0.02 97 1017.5
20260830235801 71 26 0.0 0.0 0.00 0.02 0.02 97 1017.6
20260830235256 71 26 0.0 0.0 0.00 0.02 0.02 97 1017.4
20260830234751 71 26 0.0 0.0 0.00 0.02 0.02 96 1017.4
20260830234247 71 26 0.0 0.0 0.00 0.02 0.02 96 1017.1
20260830233742 71 26 0.0 0.0 0.00 0.02 0.02 96 1017.1
20260830233238 71 26 0.0 0.0 0.00 0.02 0.02 96 1017.1
20260830232733 71 26 1.0 1.0 0.00 0.02 0.02 96 1016.7
20260830232229 72 14 2.0 2.0 0.00 0.02 0.02 95 1016.8
20260830231725 72 3 0.0 0.0 0.00 0.02 0.02 95 1016.7
20260830231225 72 208 0.0 0.0 0.00 0.02 0.02 94 1016.5
20260830230720 72 207 0.0 0.0 0.00 0.02 0.02 93 1016.5
20260830230215 72 207 0.0 0.0 0.00 0.02 0.02 92 1016.2
20260830225709 73 207 0.0 0.0 0.00 0.02 0.02 91 1016.4
20260830225204 73 207 0.0 0.0 0.00 0.02 0.02 92 1016.1
20260830224702 73 208 0.0 0.0 0.00 0.02 0.02 90 1016.1
20260830224159 74 208 0.0 0.0 0.00 0.02 0.02 91 1016.2
20260830223655 74 208 0.0 0.0 0.00 0.02 0.02 91 1015.7
20260830223155 74 208 0.0 0.0 0.00 0.02 0.02 90 1015.9
20260830222650 74 208 0.0 0.0 0.00 0.02 0.02 88 1016.1
20260830222146 74 208 0.0 0.0 0.00 0.02 0.02 88 1015.8
20260830221641 74 208 0.0 0.0 0.00 0.02 0.02 87 1015.8
20260830221138 74 208 0.0 0.0 0.00 0.02 0.02 88 1015.7
20260830220633 74 186 0.0 0.0 0.00 0.02 0.02 87 1015.7
20260830220132 74 162 0.0 0.0 0.00 0.02 0.02 86 1015.5
20260830215631 74 230 0.0 0.0 0.00 0.02 0.02 85 1015.8
20260830215125 73 230 0.0 0.0 0.00 0.02 0.02 87 1015.8
20260830214621 73 188 0.0 0.0 0.00 0.02 0.02 86 1015.3
20260830214116 73 129 1.0 2.0 0.00 0.02 0.02 86 1015.1
20260830213615 73 178 3.0 5.0 0.00 0.02 0.02 88 1015.7
20260830213110 73 151 0.0 0.0 0.00 0.02 0.02 91 1016.0